Home   Weather   Pictou   Past weeks

Flag for Canada Past Weather in Pictou, Nova Scotia, Canada — Yesterday and Last 2 Weeks

Now
35 °F

Chilly.


Feels Like: 35 °F
Forecast: 34 / 40 °F
Wind: 2 mph from Southeast

Location: Caribou Point

Current Time: Apr 23, 2017 at 2:56:06 am

Latest Report: Apr 23, 2017 at 2:00 am


Visibility: N/A

Pressure: 29.89 "Hg

Humidity: 88%

Dew Point: 32 °F

Location of PictouLocation

Past Weather in Pictou — Graph

°F

Pictou Temperature Yesterday

Maximum temperature yesterday: 38 °F (at 3:00 pm)
Minimum temperature yesterday: 31 °F (at 3:00 am)
Average temperature yesterday: 35 °F

High & Low Weather Summary for the Past Weeks

 TemperatureHumidityPressure
High58 °F (Apr 10, 2:00 pm)100% (Apr 13, 4:00 am)30.66 "Hg (Apr 13, 4:00 am)
Low26 °F (Apr 19, 4:00 am)35% (Apr 10, 1:00 pm)29.38 "Hg (Apr 8, 2:00 am)
Average38 °F79%30.07 "Hg
* Reported Apr 8 1:00 am — Apr 23 1:00 am, Pictou, Weather by CustomWeather, © 2017

Note: Actual official high and low records may vary slightly from our data, if they occured in-between our weather recording intervals... More about our weather records

Advertising

Pictou Weather History for the Previous 24 Hours

Scroll right to see more
 ConditionsComfort  
Time TempWeatherWind HumidityBarometerVisibility
1:00 am
Sun, Apr 23
36 °FChilly.3 mph90%29.93 "HgN/A
12:00 am36 °FChilly.5 mph88%29.96 "HgN/A
11:00 pm
Sat, Apr 22
38 °FChilly.5 mph86%29.96 "HgN/A
10:00 pm37 °FChilly.3 mph88%29.98 "HgN/A
9:00 pm35 °FChilly.10 mph87%29.98 "HgN/A
8:00 pm36 °FChilly.13 mph85%29.98 "HgN/A
7:00 pm36 °FChilly.6 mph87%30.00 "HgN/A
6:00 pm37 °FChilly.15 mph80%30.00 "HgN/A
5:00 pm37 °FChilly.14 mph80%30.00 "HgN/A
4:00 pm38 °FChilly.15 mph84%30.02 "HgN/A
3:00 pm38 °FChilly.13 mph77%30.03 "HgN/A
2:00 pm36 °FChilly.8 mph84%30.06 "HgN/A
1:00 pm38 °FChilly.6 mph77%30.08 "HgN/A
12:00 pm37 °FChilly.6 mph76%30.11 "HgN/A
11:00 am37 °FChilly.3 mph76%30.11 "HgN/A
10:00 am36 °FChilly.6 mph85%30.12 "HgN/A
9:00 am35 °FChilly.2 mph92%30.15 "HgN/A
8:00 am33 °FChilly.8 mph90%30.12 "HgN/A
7:00 am32 °FChilly.5 mph91%30.14 "HgN/A
6:00 am32 °FChilly.5 mph87%30.14 "HgN/A
5:00 am31 °FChilly.6 mph92%30.14 "HgN/A
4:00 am32 °FChilly.7 mph85%30.14 "HgN/A
3:00 am31 °FChilly.3 mph90%30.16 "HgN/A
2:00 am32 °FChilly.5 mph88%30.16 "HgN/A
Weather by CustomWeather, © 2017

See weather overviewHow to use our weather pages